Theta_e
334 343 356 356 355 353 351 347 347 346 346 343 341 340 338 337 336 334 331 331 332 334 335 337 339 340 342 341 342 348 349 352 354 356 356 357 358 357 357 356 359 355 359
336 344 355 355 355 353 352 351 350 350 349 346 345 344 342 340 339 338 336 334 333 334 335 336 338 341 341 341 341 346 346 350 354 356 356 356 356 357 356 356 360 355 358
337 343 351 355 355 353 353 353 352 352 351 348 347 347 345 342 341 341 339 338 337 337 336 337 338 338 342 343 342 345 348 351 354 354 354 350 352 357 356 357 357 357 358
341 344 347 355 355 354 354 353 353 353 351 350 349 347 345 344 342 342 341 341 340 339 338 338 338 338 339 341 343 344 346 348 352 352 348 349 351 357 356 356 356 357 358
343 343 347 356 354 355 354 354 353 353 351 349 348 345 343 343 343 343 342 342 342 342 341 339 339 338 339 341 345 347 347 347 350 350 348 346 346 353 355 357 355 356 356
333 345 352 356 355 355 354 354 355 352 349 348 346 343 343 342 344 344 340 341 341 342 342 341 339 340 340 343 346 347 349 347 348 346 345 346 346 352 355 354 353 355 357
338 348 353 357 357 356 353 352 352 348 345 343 343 342 341 341 341 341 341 340 341 341 341 341 340 342 342 342 343 346 347 346 344 343 343 344 344 350 355 355 355 358 358
335 341 345 354 352 350 348 348 347 343 340 337 337 338 338 339 339 339 339 339 339 339 340 340 340 342 342 342 342 343 346 344 344 342 344 340 346 350 354 354 356 357 357
326 335 338 340 343 349 348 346 343 338 334 333 333 334 334 335 335 336 336 337 337 337 339 342 340 340 341 341 340 342 344 343 341 341 345 343 350 352 353 353 354 354 355
321 323 327 333 336 337 338 342 338 336 335 334 333 333 333 332 333 334 335 336 337 337 338 340 339 339 340 340 341 343 342 343 341 340 343 344 350 351 351 351 351 352 354
319 319 318 320 321 327 331 335 337 336 336 334 332 331 331 326 325 330 333 336 338 338 338 339 339 338 339 339 340 341 340 336 338 339 342 349 349 351 351 350 350 349 351
315 316 319 322 323 324 328 328 328 328 326 325 326 325 325 324 325 329 332 334 335 338 338 338 338 337 336 328 331 339 332 335 335 337 341 349 349 350 350 348 346 345 348
316 317 317 319 323 323 324 324 323 323 323 324 325 325 324 325 324 324 326 328 327 333 329 332 331 330 329 326 326 331 332 332 332 337 343 348 349 349 348 346 345 347 346
314 315 321 323 323 324 326 325 324 325 323 322 323 325 324 323 323 324 324 325 326 326 325 326 326 327 327 326 324 330 331 330 333 336 341 347 348 348 348 347 346 346 344
315 318 322 323 323 326 326 326 324 324 323 323 324 326 325 323 325 324 324 324 323 325 325 324 325 327 326 325 324 330 331 330 336 337 338 348 347 348 347 348 347 346 343
314 317 321 322 324 326 326 326 325 326 326 326 325 324 326 326 325 322 323 322 322 322 324 324 325 325 325 323 323 330 330 332 334 336 339 344 346 345 346 347 346 344 346
314 319 320 322 323 324 324 324 326 326 327 325 325 325 326 327 326 322 322 321 321 322 322 324 324 324 324 326 326 330 331 332 335 336 339 340 342 344 346 346 346 346 345
316 319 321 325 323 323 326 325 327 327 326 325 326 325 325 326 324 323 322 321 321 321 321 322 322 322 323 324 325 327 328 330 334 337 340 339 340 340 344 344 344 344 345
316 319 320 323 321 323 325 326 326 328 327 327 326 323 323 323 326 323 322 322 322 321 320 321 321 322 321 323 326 326 328 326 332 337 336 337 338 339 339 342 343 344 344
318 320 322 322 324 325 324 325 325 326 327 328 327 323 324 323 326 325 323 322 322 320 319 320 320 322 323 323 328 329 329 327 330 334 334 337 337 337 337 339 339 339 342
319 322 323 323 323 323 321 323 321 321 324 327 327 327 325 325 325 324 322 322 321 320 319 320 321 321 321 322 320 323 324 329 326 333 335 334 334 335 335 336 335 335 336
318 321 323 323 323 322 322 325 323 325 326 327 327 327 326 327 327 325 323 322 322 320 320 320 320 319 319 323 319 319 318 323 325 331 333 331 331 332 334 335 334 335 335
317 319 323 323 321 321 324 326 323 324 324 324 325 324 324 326 327 326 324 322 322 321 320 320 320 320 318 321 324 319 315 314 324 329 330 330 332 332 333 333 334 335 335
318 321 322 322 320 323 322 324 322 320 319 322 324 325 324 326 325 326 325 324 322 321 321 322 324 322 324 320 322 326 324 324 320 319 328 329 330 330 330 331 332 333 334
319 319 321 320 319 323 322 323 323 322 324 324 323 323 322 325 325 327 325 324 321 321 321 325 321 322 324 322 321 322 322 323 325 321 319 322 327 329 329 329 331 332 333
317 319 320 321 320 323 326 322 323 323 325 322 319 321 321 324 323 325 326 323 321 321 322 323 323 323 322 323 323 322 322 321 322 323 321 321 321 325 327 329 329 331 333
Wind_Speed
6 13 21 20 19 17 16 15 13 12 10 8 6 5 4 3 2 1 1 2 4 6 7 9 9 8 9 8 8 7 8 10 9 11 13 12 14 12 10 13 15 12 14
13 13 20 19 18 17 15 14 13 11 10 10 9 9 8 8 7 6 5 5 5 6 8 10 11 10 10 9 8 8 8 10 11 9 13 14 12 13 13 13 15 15 15
13 12 14 18 17 16 14 13 12 11 10 10 10 10 9 10 10 10 8 7 6 8 9 11 12 12 11 10 9 8 8 10 10 8 12 5 6 15 14 13 14 19 20
15 11 12 18 18 17 15 13 11 10 12 12 10 9 10 11 12 12 11 11 10 10 10 12 13 13 13 11 10 10 9 10 9 7 5 6 7 14 16 15 18 19 18
14 14 13 19 16 15 13 12 11 12 11 10 9 9 9 11 12 13 13 14 13 13 12 13 14 13 13 12 11 9 9 8 8 5 5 6 5 11 16 17 20 21 20
12 11 14 17 14 11 10 10 12 10 10 9 10 10 11 12 12 12 14 15 15 15 15 14 14 13 11 12 10 9 8 7 7 4 4 6 7 12 18 21 22 21 20
9 10 11 14 11 9 8 8 6 3 3 1 6 8 9 10 10 11 13 15 16 17 16 17 16 12 10 10 9 7 6 7 4 4 5 6 6 15 19 21 22 21 21
12 10 8 14 13 11 10 7 7 6 4 2 4 7 9 11 13 14 15 16 18 19 18 18 18 14 10 8 8 7 7 8 5 4 4 4 10 17 21 22 22 22 22
10 12 9 8 11 14 12 11 9 8 6 5 5 8 11 13 15 16 17 18 20 20 20 18 19 16 11 9 9 8 9 9 5 4 4 4 11 20 22 22 21 21 21
8 8 9 9 8 7 6 13 12 10 8 6 7 8 8 8 12 14 15 16 18 18 19 17 18 16 12 10 8 8 9 10 5 5 4 4 15 21 21 23 24 23 20
7 9 8 7 8 7 6 7 10 11 9 9 8 3 2 4 6 10 9 15 19 18 18 16 18 15 12 12 10 10 9 3 4 3 3 10 15 21 24 24 24 23 20
8 4 6 8 7 6 2 5 5 5 4 3 1 3 3 4 4 6 9 8 8 15 16 14 16 17 13 4 3 10 3 5 4 4 3 11 17 20 25 25 25 23 19
8 7 8 8 7 6 2 1 1 2 2 2 6 5 4 4 3 3 3 2 2 5 3 7 8 5 5 4 4 4 5 5 3 3 5 13 18 23 25 24 25 24 25
8 7 8 8 7 5 3 0 2 2 2 3 4 6 4 3 4 3 2 3 3 2 4 4 3 5 5 7 8 7 8 5 3 3 5 16 19 23 26 27 28 25 24
9 7 8 8 6 5 3 2 3 3 3 4 3 4 4 4 3 2 3 2 2 3 3 4 5 4 5 6 6 6 8 6 6 3 3 16 18 19 22 23 22 22 24
8 8 7 6 7 6 4 5 5 4 5 4 3 4 6 4 3 3 3 3 3 3 4 4 5 4 5 4 7 6 5 3 7 6 4 7 16 19 21 23 25 24 21
8 8 8 8 8 7 7 7 4 5 4 4 3 4 3 3 4 4 4 3 4 3 4 5 4 3 4 5 7 5 4 3 6 5 5 5 6 21 21 22 26 26 21
9 8 7 4 7 7 6 5 4 5 4 4 4 3 4 4 4 4 4 3 4 3 4 4 3 3 4 5 4 4 4 4 7 8 7 6 5 5 14 23 24 24 24
9 8 5 4 3 3 4 4 4 5 4 4 3 3 3 5 6 4 4 3 4 3 4 4 3 3 4 3 4 4 4 3 5 7 10 9 8 7 6 19 21 23 24
9 8 6 4 4 4 4 3 2 3 2 3 3 3 5 4 6 4 3 4 3 3 3 2 4 3 3 4 4 4 3 4 5 7 10 8 8 7 7 8 10 11 19
9 9 7 5 5 3 2 1 1 2 2 2 4 6 7 5 6 4 3 3 3 4 4 4 3 3 4 3 4 4 1 2 6 9 9 8 9 8 9 9 8 6 7
9 9 7 6 5 3 1 2 2 2 3 2 3 3 3 5 5 4 4 4 4 3 4 4 4 2 1 4 4 4 3 2 3 8 7 9 10 8 8 9 13 11 10
9 8 7 6 6 2 2 3 2 2 3 2 2 1 2 2 3 4 4 4 4 4 4 4 4 5 3 1 4 5 4 3 5 4 10 9 10 8 7 9 11 11 12
7 8 6 7 5 3 2 3 2 2 2 2 1 1 1 2 3 3 5 4 4 1 5 5 4 4 5 3 3 2 4 5 4 7 8 9 9 10 9 7 8 9 10
8 7 7 7 5 5 3 3 2 3 2 2 2 4 3 2 1 4 4 5 4 2 3 7 6 5 6 3 3 2 4 5 4 3 9 10 8 7 6 8 7 7 7
7 8 7 6 4 4 4 1 7 6 5 4 3 4 3 1 1 5 4 4 3 3 3 4 5 5 5 3 3 3 5 5 5 7 8 11 11 8 6 6 7 6 6
Wind_Direction
166 165 172 170 169 170 171 174 179 180 183 186 194 220 244 273 262 256 259 243 240 249 258 260 264 271 274 272 273 283 299 303 288 224 176 170 167 176 174 168 153 134 131
148 172 174 172 169 174 177 180 186 188 188 201 209 218 211 231 251 251 247 257 254 258 255 256 258 258 267 272 273 278 290 296 291 234 201 187 169 179 179 180 155 142 138
144 163 172 172 171 176 183 187 189 192 199 213 223 230 224 231 245 260 262 263 262 258 258 253 252 255 262 268 268 272 282 290 294 235 221 207 180 185 187 176 156 150 143
151 157 174 178 177 182 187 189 194 201 209 218 223 234 232 237 241 253 258 259 257 254 249 252 248 251 251 261 267 267 279 286 303 233 216 202 194 193 181 173 156 148 146
155 165 173 179 180 187 191 192 197 211 224 231 223 230 240 244 247 249 251 258 259 257 250 247 249 244 253 257 262 256 269 276 297 244 204 198 189 197 185 169 159 156 156
152 164 165 172 179 188 198 206 213 223 231 233 240 246 246 248 251 247 251 254 254 254 257 251 247 244 248 259 265 279 246 256 286 244 220 212 188 193 185 169 168 167 157
112 127 146 158 161 177 204 227 250 252 233 267 263 260 257 259 259 259 257 255 255 251 248 246 244 239 239 257 264 279 258 259 262 240 227 200 190 199 181 172 168 163 155
133 129 140 143 153 163 182 190 160 154 146 209 253 263 263 261 257 255 255 254 254 254 252 242 237 229 230 242 269 272 257 242 266 243 237 211 200 190 178 170 168 162 154
129 140 146 152 167 171 174 169 168 167 191 222 256 265 267 267 264 262 261 257 252 248 250 242 227 225 214 234 247 261 240 233 244 252 202 193 203 181 173 164 159 155 161
155 157 156 173 166 144 157 174 182 184 204 212 238 262 254 260 268 265 261 257 252 245 247 237 226 221 215 228 238 248 236 237 234 243 184 176 188 169 165 158 163 166 157
170 158 169 153 131 148 175 182 189 204 201 210 241 263 256 223 247 255 254 250 241 241 239 224 218 218 220 226 229 236 230 212 228 240 181 186 195 178 170 169 159 156 164
166 155 117 114 116 108 126 144 197 233 147 195 235 268 220 243 245 268 271 286 258 236 233 220 211 215 213 200 219 229 203 212 225 226 184 194 180 175 166 154 151 153 167
144 121 131 130 121 116 88 94 287 300 171 226 225 218 235 245 259 277 288 277 259 253 227 200 199 206 190 193 219 204 209 202 217 208 186 183 180 171 160 164 158 168 163
118 122 112 113 118 118 111 253 272 127 196 242 248 226 205 239 242 258 276 278 213 199 200 182 188 199 205 201 213 207 200 192 202 188 191 185 181 182 177 173 176 173 166
116 120 115 122 126 136 149 240 255 258 244 259 263 248 201 214 233 269 275 249 233 201 192 198 205 202 208 223 215 216 204 181 187 169 169 174 182 178 179 171 169 157 161
129 130 135 133 151 155 192 219 233 233 238 242 257 281 213 179 219 238 257 262 243 209 209 199 207 210 215 213 229 224 195 162 189 169 159 160 172 177 174 164 157 165 184
144 136 145 164 171 171 206 225 228 237 238 231 228 226 208 206 232 235 247 255 241 234 214 198 216 213 217 238 224 209 124 150 178 159 139 143 169 175 165 165 163 159 154
128 144 168 168 166 201 214 219 213 234 234 220 217 202 218 246 255 237 243 239 230 211 199 198 187 214 228 209 184 193 133 160 188 146 142 140 144 142 161 157 156 147 157
136 136 159 158 143 213 235 252 230 265 252 222 206 199 218 250 258 232 228 248 221 204 189 181 190 188 209 197 188 153 140 180 182 145 137 140 134 131 142 153 151 154 162
144 140 140 151 203 205 253 304 240 257 261 207 216 205 218 232 255 232 212 248 192 176 188 167 192 209 209 183 165 130 198 185 127 143 132 128 133 124 119 144 144 149 161
138 142 162 179 213 181 287 245 208 250 238 213 221 226 226 217 236 239 201 236 182 174 186 190 181 216 235 143 109 83 69 213 131 136 140 128 122 121 121 126 123 131 138
148 155 177 186 209 199 229 235 172 200 243 192 206 241 267 235 202 207 198 206 184 170 197 192 181 130 162 164 143 112 135 15 75 126 132 128 118 122 120 125 141 132 133
154 162 175 192 164 157 309 17 40 10 346 20 279 236 290 76 159 182 170 159 188 168 177 161 146 138 145 348 149 149 141 168 133 139 132 127 123 126 122 124 133 129 138
165 161 166 158 157 170 83 58 73 125 264 256 208 62 142 111 208 145 151 166 176 160 147 140 134 143 122 159 57 28 87 121 135 147 131 123 120 119 125 124 116 120 135
153 163 152 147 152 153 163 169 116 36 303 313 70 87 91 39 22 156 164 148 170 203 173 136 133 146 173 146 141 132 67 80 84 104 131 127 121 120 113 114 118 118 135
149 145 142 152 174 183 193 167 91 74 27 49 60 80 69 66 335 136 118 112 123 87 155 159 156 154 142 126 114 136 129 118 131 118 116 127 123 110 102 108 117 126 137